Location: *
(39.6167°S, 171.5333°W)
Time: 19:32:52
(UTC+00:00)

DELTA 2 R/B (1) - Pass Details

Date: 13 May 2021
Orbit: 790 x 802 km, 39.6° (Epoch: 20 June)

Event Time Altitude Azimuth Distance (km) Brightness Sun altitude
Exits shadow 17:08:40 20° 269° (W) 1,760 4.8 -14.3°
Maximum altitude 17:12:36 89° 175° (S) 809 3.6 -13.6°
Drops below altitude 10° 17:18:15 10° 88° (E) 2,383 7.5 -12.5°
Sets 17:20:45 0° 87° (E) 3,314 8.6 -12.0°
